GW2706 Weather Reports


time (UTC)temp
C
wind
direction
speed
KPH
gust
KPH
rain 1hr
cm
rain 24hr
cm
rain mn
cm
humidity
%
barometer
mb
20260906150341 31 198 1.6 3.2 0.00 0.00 0.00 69 1015.5
20260906145840 31 237 1.6 1.6 0.00 0.00 0.00 70 1015.7
20260906145339 31 61 0.0 3.2 0.00 0.00 0.00 72 1015.7
20260906144834 30 132 0.0 4.8 0.00 0.00 0.00 75 1015.6
20260906144329 30 105 1.6 4.8 0.00 0.00 0.00 75 1015.5
20260906143829 30 12 1.6 4.8 0.00 0.00 0.00 76 1015.5
20260906143325 30 301 3.2 4.8 0.00 0.00 0.00 75 1015.6
20260906142820 29 261 4.8 4.8 0.00 0.00 0.00 76 1015.6
20260906142315 28 232 3.2 4.8 0.00 0.00 0.00 77 1015.8
20260906141815 28 83 1.6 3.2 0.00 0.00 0.00 78 1015.7
20260906141309 28 176 1.6 3.2 0.00 0.00 0.00 79 1015.4
20260906140802 28 341 1.6 3.2 0.00 0.00 0.00 80 1015.8
20260906140257 27 242 1.6 3.2 0.00 0.00 0.00 81 1015.7
20260906135755 27 72 1.6 3.2 0.00 0.00 0.00 82 1015.5
20260906135250 27 146 0.0 4.8 0.00 0.00 0.00 82 1015.5
20260906134746 27 244 1.6 1.6 0.00 0.00 0.00 83 1015.4
20260906134241 26 187 0.0 4.8 0.00 0.00 0.00 84 1015.4
20260906133736 26 175 1.6 3.2 0.00 0.00 0.00 86 1015.4
20260906133232 26 298 3.2 3.2 0.00 0.00 0.00 86 1015.4
20260906132727 25 234 1.6 3.2 0.00 0.00 0.00 87 1015.3
20260906132222 25 224 0.0 0.0 0.00 0.00 0.00 89 1015.5
20260906131718 25 156 0.0 0.0 0.00 0.00 0.00 91 1015.3
20260906131213 24 182 0.0 0.0 0.00 0.00 0.00 93 1015.4
20260906130708 23 211 0.0 0.0 0.00 0.00 0.00 94 1015.4
20260906130203 23 196 0.0 0.0 0.00 0.00 0.00 94 1015.3
20260906125701 23 214 0.0 0.0 0.00 0.00 0.00 95 1015.2
20260906125200 23 208 0.0 0.0 0.00 0.00 0.00 95 1015.2
20260906124655 23 255 0.0 0.0 0.00 0.00 0.00 95 1015.2
20260906124151 23 215 0.0 0.0 0.00 0.00 0.00 95 1015.0
20260906123649 23 212 0.0 0.0 0.00 0.00 0.00 95 1015.0
20260906123145 23 206 0.0 0.0 0.00 0.00 0.00 96 1014.9
20260906122644 22 203 0.0 0.0 0.00 0.00 0.00 96 1015.0
20260906122140 22 199 0.0 0.0 0.00 0.00 0.00 96 1014.9
20260906121636 22 229 0.0 0.0 0.00 0.00 0.00 96 1014.9
20260906121132 22 180 0.0 0.0 0.00 0.00 0.00 96 1014.7
20260906120627 22 174 0.0 0.0 0.00 0.00 0.00 96 1014.8
20260906120125 22 199 0.0 0.0 0.00 0.00 0.00 96 1014.6
20260906115625 22 170 0.0 0.0 0.00 0.00 0.00 96 1014.7
20260906115120 22 180 0.0 0.0 0.00 0.00 0.00 96 1014.6
20260906114613 22 218 0.0 0.0 0.00 0.00 0.00 96 1014.7
20260906114108 22 169 0.0 0.0 0.00 0.00 0.00 96 1014.5
20260906113603 22 182 0.0 0.0 0.00 0.00 0.00 96 1014.5
20260906113058 22 229 0.0 0.0 0.00 0.00 0.00 96 1014.3
20260906112557 22 196 0.0 0.0 0.00 0.00 0.00 96 1014.7
20260906112055 22 233 0.0 0.0 0.00 0.00 0.00 96 1014.4
20260906111553 22 255 0.0 0.0 0.00 0.00 0.00 95 1014.5
20260906111049 22 210 0.0 0.0 0.00 0.00 0.00 95 1014.4
20260906110549 22 174 0.0 0.0 0.00 0.00 0.00 95 1014.1
20260906110048 23 290 0.0 0.0 0.00 0.00 0.00 95 1014.3
20260906105543 23 194 0.0 0.0 0.00 0.00 0.00 95 1014.0
20260906105039 23 195 0.0 0.0 0.00 0.00 0.00 95 1013.9
20260906104537 23 245 0.0 0.0 0.00 0.00 0.00 95 1014.0
20260906104032 23 201 0.0 0.0 0.00 0.00 0.00 95 1013.9
20260906103530 23 201 0.0 0.0 0.00 0.00 0.00 95 1013.8
20260906103026 23 181 0.0 0.0 0.00 0.00 0.00 95 1013.9
20260906102526 23 328 0.0 0.0 0.00 0.00 0.00 94 1013.9
20260906102021 23 179 0.0 0.0 0.00 0.00 0.00 94 1013.9
20260906101515 23 234 0.0 0.0 0.00 0.00 0.00 94 1013.7
20260906101010 23 198 0.0 0.0 0.00 0.00 0.00 94 1013.9
20260906100506 23 138 0.0 0.0 0.00 0.00 0.00 94 1013.7
20260906100000 23 171 0.0 0.0 0.00 0.00 0.00 94 1013.7
20260906095455 23 138 0.0 0.0 0.00 0.00 0.00 94 1013.7
20260906094950 23 133 0.0 0.0 0.00 0.00 0.00 94 1013.5
20260906094449 23 303 0.0 0.0 0.00 0.00 0.00 94 1013.6
20260906093946 23 240 0.0 0.0 0.00 0.00 0.00 94 1013.6
20260906093441 23 165 0.0 0.0 0.00 0.00 0.00 94 1013.5
20260906092936 23 142 0.0 0.0 0.00 0.00 0.00 94 1013.4
20260906092436 23 104 0.0 0.0 0.00 0.00 0.00 94 1013.5
20260906091931 23 203 0.0 0.0 0.00 0.00 0.00 94 1013.5
20260906091427 23 208 0.0 0.0 0.00 0.00 0.00 93 1013.5
20260906090923 23 157 0.0 0.0 0.00 0.00 0.00 93 1013.5
20260906090418 24 223 0.0 0.0 0.00 0.00 0.00 93 1013.5
20260906085912 24 38 0.0 0.0 0.00 0.00 0.00 92 1013.6
20260906085406 24 197 0.0 0.0 0.00 0.00 0.00 92 1013.6
20260906084905 24 195 0.0 0.0 0.00 0.00 0.00 92 1013.6
20260906084401 24 143 0.0 0.0 0.00 0.00 0.00 91 1013.4
20260906083859 24 133 0.0 0.0 0.00 0.00 0.00 92 1013.3
20260906083355 24 104 0.0 0.0 0.00 0.00 0.00 92 1013.4
20260906082855 24 111 0.0 0.0 0.00 0.00 0.00 92 1013.5
20260906082350 24 172 0.0 0.0 0.00 0.00 0.00 92 1013.4
20260906081846 25 165 0.0 0.0 0.00 0.00 0.00 92 1013.3
20260906081341 25 164 0.0 0.0 0.00 0.00 0.00 92 1013.2
20260906080837 25 146 0.0 0.0 0.00 0.00 0.00 92 1013.4
20260906080334 25 100 1.6 1.6 0.00 0.00 0.00 92 1013.4
20260906075833 25 217 0.0 0.0 0.00 0.00 0.00 91 1013.3
20260906075333 25 178 0.0 1.6 0.00 0.00 0.00 91 1013.5
20260906074828 25 120 0.0 1.6 0.00 0.00 0.00 92 1013.3
20260906074328 25 86 0.0 0.0 0.00 0.00 0.00 92 1013.6
20260906073827 25 122 1.6 3.2 0.00 0.00 0.00 92 1013.5
20260906073322 25 182 0.0 0.0 0.00 0.00 0.00 92 1013.5
20260906072819 24 112 1.6 1.6 0.00 0.00 0.00 93 1013.5
20260906072314 24 149 0.0 3.2 0.00 0.00 0.00 93 1013.6
20260906071809 24 120 1.6 1.6 0.00 0.00 0.00 93 1013.5
20260906071304 24 309 3.2 3.2 0.00 0.00 0.00 93 1013.5
20260906070800 24 170 0.0 0.0 0.00 0.00 0.00 93 1013.5
20260906070256 24 171 0.0 0.0 0.00 0.00 0.00 93 1013.4
20260906065750 24 188 0.0 3.2 0.00 0.00 0.00 93 1013.5
20260906065245 24 290 3.2 4.8 0.00 0.00 0.00 93 1013.5
20260906064741 24 171 0.0 0.0 0.00 0.00 0.00 93 1013.7
20260906064237 24 306 3.2 3.2 0.00 0.00 0.00 93 1013.6
20260906063731 24 182 0.0 0.0 0.00 0.00 0.00 93 1013.8
20260906063227 24 164 0.0 0.0 0.00 0.00 0.00 93 1013.6
20260906062722 24 257 0.0 3.2 0.00 0.00 0.00 93 1013.7
20260906062221 24 231 0.0 1.6 0.00 0.00 0.00 93 1013.8
20260906061717 24 196 1.6 1.6 0.00 0.00 0.00 93 1013.6
20260906061213 24 263 3.2 4.8 0.00 0.00 0.00 93 1013.5
20260906060709 24 226 1.6 3.2 0.00 0.00 0.00 93 1013.6
20260906060206 25 312 4.8 4.8 0.00 0.00 0.00 93 1013.8
20260906055701 25 240 1.6 3.2 0.00 0.00 0.00 92 1013.7
20260906055156 25 251 1.6 3.2 0.00 0.00 0.00 92 1013.7
20260906054651 25 205 0.0 0.0 0.00 0.00 0.00 92 1013.8
20260906054146 25 223 0.0 0.0 0.00 0.00 0.00 91 1013.7
20260906053643 25 228 0.0 0.0 0.00 0.00 0.00 91 1013.8
20260906053138 25 187 1.6 1.6 0.00 0.00 0.00 91 1013.8
20260906052633 25 191 0.0 0.0 0.00 0.00 0.00 92 1013.8
20260906052129 25 172 0.0 0.0 0.00 0.00 0.00 93 1013.7
20260906051625 25 147 0.0 0.0 0.00 0.00 0.00 93 1013.7
20260906051120 25 148 0.0 0.0 0.00 0.00 0.00 93 1013.7
20260906050616 25 137 0.0 0.0 0.00 0.00 0.00 93 1013.8
20260906050111 25 178 0.0 0.0 0.00 0.00 0.00 93 1013.6
20260906045609 25 194 0.0 1.6 0.00 0.00 0.00 93 1013.6
20260906045104 25 199 1.6 1.6 0.00 0.00 0.00 93 1013.5
20260906044600 25 246 1.6 3.2 0.00 0.00 0.00 93 1013.6
20260906044055 25 295 3.2 3.2 0.00 0.00 0.00 92 1013.5
20260906043551 25 192 0.0 1.6 0.00 0.00 0.00 92 1013.4
20260906043047 25 201 1.6 3.2 0.00 0.00 0.00 92 1013.4
20260906042545 25 285 3.2 3.2 0.00 0.00 0.00 92 1013.4
20260906042040 25 294 0.0 0.0 0.00 0.00 0.00 91 1013.4
20260906041536 25 247 0.0 0.0 0.00 0.00 0.00 91 1013.5
20260906041031 25 176 0.0 0.0 0.00 0.00 0.00 90 1013.3
20260906040526 25 157 0.0 0.0 0.00 0.00 0.00 89 1013.5
20260906040022 25 142 0.0 0.0 0.00 0.00 0.00 89 1013.4
20260906035516 25 135 0.0 0.0 0.00 0.00 0.00 89 1013.3
20260906035013 25 147 0.0 0.0 0.00 0.00 0.00 89 1013.5
20260906034513 25 133 0.0 0.0 0.00 0.00 0.00 89 1013.6
20260906034008 25 142 0.0 0.0 0.00 0.00 0.00 90 1013.5
20260906033502 25 128 0.0 0.0 0.00 0.00 0.00 90 1013.5
20260906032957 26 144 0.0 0.0 0.00 0.00 0.00 90 1013.5
20260906032449 26 187 0.0 0.0 0.00 0.00 0.00 89 1013.4
20260906031948 26 169 0.0 0.0 0.00 0.00 0.00 88 1013.5
20260906031444 26 169 0.0 0.0 0.00 0.00 0.00 87 1013.4
20260906030939 26 164 0.0 0.0 0.00 0.00 0.00 87 1013.6
20260906030433 26 173 0.0 0.0 0.00 0.00 0.00 87 1013.4
20260906025928 26 167 0.0 0.0 0.00 0.00 0.00 85 1013.2
20260906025422 26 131 0.0 0.0 0.00 0.00 0.00 85 1013.3
20260906024921 26 141 0.0 0.0 0.00 0.00 0.00 84 1013.3
20260906024421 26 143 0.0 0.0 0.00 0.00 0.00 84 1013.1
20260906023916 26 125 0.0 0.0 0.00 0.00 0.00 84 1013.2
20260906023413 26 126 0.0 0.0 0.00 0.00 0.00 84 1013.1
20260906022912 26 136 0.0 0.0 0.00 0.00 0.00 85 1013.2
20260906022407 27 123 0.0 0.0 0.00 0.00 0.00 85 1013.0
20260906021903 27 124 0.0 0.0 0.00 0.00 0.00 85 1013.1
20260906021402 27 129 0.0 0.0 0.00 0.00 0.00 85 1013.0
20260906020856 27 158 0.0 0.0 0.00 0.00 0.00 86 1013.0
20260906020351 27 150 0.0 0.0 0.00 0.00 0.00 86 1012.8
20260906015846 27 166 0.0 0.0 0.00 0.00 0.00 85 1012.6
20260906015345 27 179 0.0 1.6 0.00 0.00 0.00 85 1012.7
20260906014844 27 121 0.0 0.0 0.00 0.00 0.00 85 1012.6
20260906014339 27 128 0.0 0.0 0.00 0.00 0.00 85 1012.4
20260906013835 27 145 0.0 0.0 0.00 0.00 0.00 86 1012.4
20260906013331 27 273 1.6 3.2 0.00 0.00 0.00 85 1012.6
20260906012826 27 173 0.0 1.6 0.00 0.00 0.00 85 1012.4
20260906012321 27 119 1.6 1.6 0.00 0.00 0.00 85 1012.5
20260906011815 28 235 1.6 3.2 0.00 0.00 0.00 81 1012.2
20260906011310 28 145 0.0 3.2 0.00 0.00 0.00 79 1012.4
20260906010806 28 82 0.0 0.0 0.00 0.00 0.00 78 1012.1
20260906010302 28 139 0.0 0.0 0.00 0.00 0.00 78 1011.9
20260906005757 28 111 0.0 1.6 0.00 0.00 0.00 79 1011.9
20260906005256 28 121 0.0 1.6 0.00 0.00 0.00 77 1011.9
20260906004755 28 101 1.6 3.2 0.00 0.00 0.00 76 1011.9
20260906004250 29 133 0.0 0.0 0.00 0.00 0.00 75 1011.8
20260906003750 29 98 0.0 0.0 0.00 0.00 0.00 74 1012.1
20260906003246 29 131 0.0 0.0 0.00 0.00 0.00 74 1012.1
20260906002740 29 130 0.0 1.6 0.00 0.00 0.00 73 1011.9
20260906002235 30 62 1.6 1.6 0.00 0.00 0.00 72 1011.9
20260906001730 30 133 0.0 0.0 0.00 0.00 0.00 72 1012.1
20260906001225 30 116 1.6 1.6 0.00 0.00 0.00 72 1012.1
20260906000721 30 51 1.6 1.6 0.00 0.00 0.00 73 1012.2
20260906000215 30 213 1.6 1.6 0.00 0.00 0.00 74 1012.2
20260905235715 31 306 4.8 4.8 0.00 0.00 0.00 72 1012.3
20260905235210 31 130 0.0 1.6 0.00 0.00 0.00 67 1012.5
20260905234706 31 87 1.6 1.6 0.00 0.00 0.00 67 1012.3
20260905234201 31 81 1.6 3.2 0.00 0.00 0.00 65 1012.3
20260905233656 32 39 1.6 3.2 0.00 0.00 0.00 64 1012.3
20260905233155 32 114 0.0 0.0 0.00 0.00 0.00 63 1012.1
20260905232651 33 138 0.0 0.0 0.00 0.00 0.00 60 1012.1
20260905232146 34 228 1.6 1.6 0.00 0.00 0.00 58 1012.3
20260905231641 35 171 0.0 1.6 0.00 0.00 0.00 57 1012.3
20260905231137 35 161 1.6 1.6 0.00 0.00 0.00 53 1012.2
20260905230633 36 287 4.8 4.8 0.00 0.00 0.00 51 1012.3
20260905230131 36 250 3.2 3.2 0.00 0.00 0.00 51 1012.2
20260905225631 36 115 3.2 3.2 0.00 0.00 0.00 49 1012.2
20260905225126 36 145 1.6 4.8 0.00 0.00 0.00 54 1012.2
20260905224625 36 260 3.2 3.2 0.00 0.00 0.00 53 1012.1
20260905224125 37 274 3.2 3.2 0.00 0.00 0.00 49 1012.0
20260905223622 36 205 1.6 1.6 0.00 0.00 0.00 50 1012.1
20260905223118 36 172 1.6 3.2 0.00 0.00 0.00 53 1012.1
20260905222613 36 258 4.8 4.8 0.00 0.00 0.00 50 1012.2
20260905222108 36 294 4.8 4.8 0.00 0.00 0.00 54 1012.1
20260905221604 36 277 3.2 3.2 0.00 0.00 0.00 52 1012.2
20260905221100 36 258 3.2 3.2 0.00 0.00 0.00 52 1012.3
20260905220555 36 267 1.6 3.2 0.00 0.00 0.00 52 1012.4
20260905220051 36 277 4.8 4.8 0.00 0.00 0.00 50 1012.3
20260905215550 36 257 4.8 8.0 0.00 0.00 0.00 52 1012.5
20260905215046 37 299 6.4 8.0 0.00 0.00 0.00 50 1012.6
20260905214542 37 358 4.8 8.0 0.00 0.00 0.00 52 1012.3
20260905214037 37 226 4.8 4.8 0.00 0.00 0.00 49 1012.4
20260905213532 37 194 3.2 3.2 0.00 0.00 0.00 50 1012.4
20260905213028 36 311 4.8 8.0 0.00 0.00 0.00 51 1012.6
20260905212522 36 277 6.4 8.0 0.00 0.00 0.00 53 1012.3
20260905212022 36 144 1.6 4.8 0.00 0.00 0.00 51 1012.2
20260905211517 36 273 4.8 8.0 0.00 0.00 0.00 54 1012.3
20260905211013 36 282 6.4 8.0 0.00 0.00 0.00 59 1012.2
20260905210509 35 287 6.4 9.7 0.00 0.00 0.00 60 1012.3
20260905210009 35 316 6.4 8.0 0.00 0.00 0.00 63 1012.4
20260905205503 35 299 6.4 8.0 0.00 0.00 0.00 61 1012.4
20260905205002 35 262 4.8 4.8 0.00 0.00 0.00 62 1012.4
20260905204457 34 261 6.4 8.0 0.00 0.00 0.00 65 1012.5
20260905203956 33 286 4.8 8.0 0.00 0.00 0.00 67 1012.7
20260905203452 33 302 6.4 8.0 0.00 0.00 0.00 67 1012.8
20260905202947 33 254 0.0 0.0 0.00 0.00 0.00 63 1012.8
20260905202442 35 117 0.0 0.0 0.00 0.00 0.00 62 1012.8
20260905201938 36 132 0.0 0.0 0.00 0.00 0.00 57 1013.0
20260905201433 36 186 0.0 1.6 0.00 0.00 0.00 54 1013.0
20260905200927 36 149 0.0 1.6 0.00 0.00 0.00 58 1013.1
20260905200423 35 227 3.2 3.2 0.00 0.00 0.00 55 1013.1
20260905195921 35 162 0.0 0.0 0.00 0.00 0.00 56 1013.1
20260905195416 35 161 0.0 0.0 0.00 0.00 0.00 57 1013.4
20260905194912 35 137 0.0 0.0 0.00 0.00 0.00 59 1013.4
20260905194411 35 135 0.0 0.0 0.00 0.00 0.00 58 1013.4
20260905193906 35 155 1.6 1.6 0.00 0.00 0.00 56 1013.5
20260905193401 34 129 0.0 0.0 0.00 0.00 0.00 58 1013.5
20260905192856 34 138 0.0 0.0 0.00 0.00 0.00 59 1013.5
20260905192351 34 88 0.0 0.0 0.00 0.00 0.00 57 1013.4
20260905191851 33 121 1.6 1.6 0.00 0.00 0.00 57 1013.5
20260905191349 33 132 0.0 0.0 0.00 0.00 0.00 57 1013.6
20260905190849 34 136 0.0 1.6 0.00 0.00 0.00 57 1013.6
20260905190343 35 120 1.6 1.6 0.00 0.00 0.00 54 1013.8
20260905185841 35 114 0.0 1.6 0.00 0.00 0.00 53 1013.9
20260905185337 36 119 0.0 0.0 0.00 0.00 0.00 51 1014.1
20260905184836 37 114 0.0 1.6 0.00 0.00 0.00 48 1014.0
20260905184335 37 126 0.0 0.0 0.00 0.00 0.00 47 1014.1
20260905183828 37 166 1.6 3.2 0.00 0.00 0.00 43 1014.0
20260905183324 38 285 9.7 11.3 0.00 0.00 0.00 42 1014.3
20260905182823 38 239 4.8 8.0 0.00 0.00 0.00 41 1014.3
20260905182318 38 301 4.8 8.0 0.00 0.00 0.00 42 1014.1
20260905181813 37 169 0.0 0.0 0.00 0.00 0.00 44 1013.9
20260905181307 38 158 0.0 1.6 0.00 0.00 0.00 43 1014.0
20260905180806 37 154 0.0 1.6 0.00 0.00 0.00 43 1014.1
20260905180301 38 150 3.2 8.0 0.00 0.00 0.00 41 1014.0
20260905175756 38 153 1.6 3.2 0.00 0.00 0.00 41 1014.4
20260905175251 37 222 1.6 4.8 0.00 0.00 0.00 42 1014.4
20260905174746 37 98 4.8 9.7 0.00 0.00 0.00 45 1014.4
20260905174242 37 211 1.6 3.2 0.00 0.00 0.00 44 1014.5
20260905173737 37 217 1.6 9.7 0.00 0.00 0.00 44 1014.4
20260905173233 38 270 3.2 8.0 0.00 0.00 0.00 42 1014.7
20260905172732 38 160 3.2 4.8 0.00 0.00 0.00 43 1014.6
20260905172227 37 140 0.0 1.6 0.00 0.00 0.00 46 1014.7
20260905171723 36 248 3.2 8.0 0.00 0.00 0.00 45 1014.5
20260905171219 37 301 4.8 9.7 0.00 0.00 0.00 45 1014.8
20260905170716 36 115 0.0 3.2 0.00 0.00 0.00 46 1014.8
20260905170216 37 296 6.4 9.7 0.00 0.00 0.00 45 1014.8
20260905165715 37 276 4.8 4.8 0.00 0.00 0.00 47 1014.8
20260905165211 36 260 3.2 3.2 0.00 0.00 0.00 47 1014.9
20260905164710 36 283 3.2 4.8 0.00 0.00 0.00 48 1014.9
20260905164205 36 218 4.8 8.0 0.00 0.00 0.00 47 1014.9
20260905163701 35 201 3.2 3.2 0.00 0.00 0.00 47 1015.0
20260905163157 36 292 6.4 9.7 0.00 0.00 0.00 46 1015.0
20260905162653 36 287 3.2 3.2 0.00 0.00 0.00 46 1015.1
20260905162152 36 227 0.0 1.6 0.00 0.00 0.00 49 1015.3
20260905161647 36 175 0.0 3.2 0.00 0.00 0.00 49 1015.1
20260905161144 36 170 0.0 1.6 0.00 0.00 0.00 51 1015.1
20260905160638 36 175 1.6 4.8 0.00 0.00 0.00 50 1015.3
20260905160133 35 140 0.0 3.2 0.00 0.00 0.00 52 1015.3
20260905155633 35 153 0.0 1.6 0.00 0.00 0.00 53 1015.2
20260905155131 35 142 0.0 1.6 0.00 0.00 0.00 55 1015.3
20260905154626 35 117 1.6 1.6 0.00 0.00 0.00 53 1015.4
20260905154122 35 78 1.6 1.6 0.00 0.00 0.00 56 1015.3
20260905153617 35 101 1.6 3.2 0.00 0.00 0.00 56 1015.3
20260905153113 33 117 0.0 1.6 0.00 0.00 0.00 60 1015.4
20260905152608 34 203 1.6 3.2 0.00 0.00 0.00 57 1015.4
20260905152102 34 147 0.0 1.6 0.00 0.00 0.00 58 1015.3
20260905151557 33 157 0.0 3.2 0.00 0.00 0.00 61 1015.3
20260905151052 32 137 0.0 1.6 0.00 0.00 0.00 65 1015.3
20260905150548 31 192 1.6 4.8 0.00 0.00 0.00 63 1015.1